TimeCST,TemperatureF,Dew PointF,Humidity,Sea Level PressureIn,VisibilityMPH,Wind Direction,Wind SpeedMPH,Gust SpeedMPH,PrecipitationIn,Events,Conditions,WindDirDegrees,DateUTC
12:52 AM,21.9,19.0,89,30.41,7.0,Calm,Calm,-,N/A,,Overcast,0,2013-02-09 06:52:00
1:52 AM,21.0,18.0,88,30.42,6.0,NW,3.5,-,N/A,,Overcast,320,2013-02-09 07:52:00
2:52 AM,21.9,19.9,92,30.42,7.0,Calm,Calm,-,N/A,,Overcast,0,2013-02-09 08:52:00
3:52 AM,21.9,19.0,89,30.40,7.0,Calm,Calm,-,N/A,,Overcast,0,2013-02-09 09:52:00
4:52 AM,21.9,19.0,89,30.42,7.0,Calm,Calm,-,N/A,,Overcast,0,2013-02-09 10:52:00
5:52 AM,21.9,19.9,92,30.42,7.0,Calm,Calm,-,N/A,,Overcast,0,2013-02-09 11:52:00
6:52 AM,25.0,19.9,81,30.42,10.0,South,4.6,-,N/A,,Overcast,190,2013-02-09 12:52:00
7:52 AM,25.0,19.9,81,30.41,8.0,SSW,4.6,-,N/A,,Overcast,200,2013-02-09 13:52:00
8:52 AM,27.0,21.0,78,30.41,10.0,South,5.8,-,N/A,,Overcast,190,2013-02-09 14:52:00
9:52 AM,28.0,21.0,75,30.40,10.0,South,10.4,-,N/A,,Overcast,190,2013-02-09 15:52:00
10:52 AM,28.9,21.9,75,30.39,10.0,South,10.4,-,0.01,,Overcast,180,2013-02-09 16:52:00
11:52 AM,30.9,23.0,72,30.35,10.0,South,15.0,-,0.04,,Mostly Cloudy,180,2013-02-09 17:52:00
12:07 PM,30.2,23.0,75,30.30,10.0,South,11.5,-,0.02,,Scattered Clouds,170,2013-02-09 18:07:00
12:52 PM,32.0,23.0,69,30.31,10.0,South,13.8,-,0.09,,Partly Cloudy,190,2013-02-09 18:52:00
1:52 PM,33.1,24.1,70,30.28,10.0,South,15.0,-,0.08,,Clear,180,2013-02-09 19:52:00
3:52 PM,32.0,24.1,73,30.26,10.0,South,11.5,-,0.03,,Clear,190,2013-02-09 21:52:00
4:52 PM,32.0,24.1,73,30.24,9.0,South,6.9,-,0.01,,Clear,170,2013-02-09 22:52:00
5:52 PM,28.9,23.0,78,30.22,9.0,Calm,Calm,-,N/A,,Clear,0,2013-02-09 23:52:00
6:52 PM,25.0,21.9,88,30.21,6.0,Calm,Calm,-,N/A,,Clear,0,2013-02-10 00:52:00
7:52 PM,24.1,21.0,88,30.19,5.0,Calm,Calm,-,N/A,,Clear,0,2013-02-10 01:52:00
8:52 PM,24.1,21.0,88,30.19,4.0,Calm,Calm,-,N/A,,Clear,0,2013-02-10 02:52:00
9:52 PM,25.0,23.0,92,30.16,6.0,Calm,Calm,-,N/A,,Clear,0,2013-02-10 03:52:00
10:52 PM,25.0,21.9,88,30.13,6.0,Calm,Calm,-,N/A,,Clear,0,2013-02-10 04:52:00
11:52 PM,30.9,25.0,79,30.11,9.0,SSE,8.1,-,N/A,,Clear,160,2013-02-10 05:52:00